DECAYED

STARLINK-31301, 59935 (Decayed)

Orbit data source: Space-Track

STARLINK-31301, 59935 was a payload satellite owned by SpaceX/Seattle (US) in LEO that was launched on Sat, 01 Jun 2024 UTC via an FALCON 9 launch vehicle from the Air Force Eastern Test Range (AFETR). Payload-class satellites include a variety of spacecraft equipped with specific instruments for various scientific and technological missions. These include communications satellites like Starlink; space stations such as the ISS; scientific satellites like the Hubble; Earth observation satellites from companies like Planet Labs, Umbra, and HawkEye 360; GPS; miniature CubeSats for education and research; and military/defense satellites.

Not visible in the next 10 days
Identifier
59935, 2024-106P
Orbit
Decayed
Country
Flag of USUS
Related business
Manufacturer
SpaceX/Seattle
Mission
Decayed spacecraft
Bus & Motor
STARLINK V2M, Unknown motor
Mass
730 kg wet, ~700 kg dry
Launch date (UTC)
2024-06-01 (1 year ago)
Launch vehicle
FALCON 9
Launch site
Air Force Eastern Test Range (AFETR)
Object type
Payload
Rocket body
Debris
Shape & HBR
Unknown
Radar Cross Section
Large (>1 m²)

Expand to show TLE details & history
Last TLE update: 1 year ago

TLE from 1 year ago
0 STARLINK-31301
1 59935U 24106P   24222.71168253  .04949830  92180-5  10098-2 0  9991
2 59935  42.9989 356.0984 0013895 323.8977 127.5343 16.29919159 12262
Epoch: 2024-08-09T17:04Z
TLE epoch observation values (Epoch: 2024-08-09T17:04:49.37Z)
Latitude
43.14335°
Longitude
-126.65723°
Altitude
201.399 km
Speed
7.789 km/s
True Right ascension
05h 52m 55s
True Declination
42° 57' 26"
Sunlit
Object was in daylight at epoch
Visualization orbit readout
Latitude
Unknown
Longitude
Unknown
Altitude
Unknown
Speed
Unknown
Apparent Right ascension
Unknown
Apparent Declination
Unknown
Sunlit
N/A
Visualization observer readout
Local Sidereal Time
23:40:47
Azimuth
Unknown
Elevation
Unknown
Doppler factor
Unknown
Orbital elements
Apogee altitude
203.921 km
Perigee altitude
185.655 km
Semi-major axis
6,572.925 km
Eccentricity
0.00139
Inclination
42.9989°
RAAN
356.0984°
Arg. of periapsis
323.8977°
True anomaly
127.66043°
Mean anomaly
127.5343°
Eccentric anomaly
127.59738°
Mean motion
4.07291 °/min
Orbital period
88.39 mins
BSTAR
0.0010098
Loading maneuver chart data...
Computing Atmospheric mass density...
Loading historical data...
Loading historical data...
Loading historical data...
Loading historical data...
Loading historical data...
Loading historical data...
Loading historical data...

Documentation

Showing up to 5 results
|